Monticello, AR

4:18 PM CST on February 22, 2017 (GMT -0600)
Monticello Municipal-Ellis

Weather History for KLLQ - January, 2013

Change the Weather History Date:

Sunday, January 13, 2013

  Actual Average Record
Temperature  
Mean Temperature 52 °F -  
Max Temperature 69 °F 46 °F 75 °F (1960)
Min Temperature 35 °F 28 °F 9 °F (1963)
Degree Days  
Heating Degree Days 12    
Growing Degree Days 2 (Base 50)    
Moisture  
Dew Point 43 °F    
Average Humidity 89    
Maximum Humidity 94    
Minimum Humidity 75    
Precipitation  
Precipitation 3.63 in - - ()
Sea Level Pressure  
Sea Level Pressure 29.97 in    
Wind  
Wind Speed 9 mph (NNW)    
Max Wind Speed 21 mph    
Max Gust Speed 32 mph    
Visibility 6 miles    
Events Rain , Thunderstorm    
Averages and records for this station are not official NWS values.
T = Trace of Precipitation, MM = Missing Value Source: NWS Daily Summary

Daily Weather History Graph

Daily Weather History Graph

Search for Another Location

Airport or City:

Trip Planner

Search our weather history database for the weather conditions in past years. The results will help you decide how hot, cold, wet, or windy it might be!

Date:

Astronomy

Jan. 13, 2013 Rise Set
Actual Time 7:11 AM CST 5:20 PM CST
Civil Twilight 6:44 AM CST 5:47 PM CST
Nautical Twilight 6:14 AM CST 6:17 PM CST
Astronomical Twilight 5:44 AM CST 6:47 PM CST
Moon 8:18 AM CST (1/13) 7:49 PM CST (1/13)
Length of Visible Light 11h 02m
Length of Day
10h 08m
Waxing Crescent, 5% of the Moon is Illuminated
Jan 13
Waxing Crescent
Jan 18
First Quarter
Jan 26
Full
Feb 3
Last Quarter
Feb 10
New

Hourly Weather History & Observations

Time (CST) Temp. Windchill Dew Point Humidity Pressure Visibility Wind Dir Wind Speed Gust Speed Precip Events Conditions
12:04 AM 69.8 °F - 66.2 °F 88% 29.73 in 10.0 mi South 8.1 mph - N/A   Overcast
12:53 AM 69.1 °F - 66.0 °F 90% 29.71 in 8.0 mi South 8.1 mph 17.3 mph 0.01 in Rain Light Rain
1:10 AM 69.8 °F - 66.2 °F 88% 29.73 in 5.0 mi South 8.1 mph - 0.03 in Rain , Thunderstorm Rain
1:22 AM 68.0 °F - 66.2 °F 94% 29.75 in 2.0 mi West 20.7 mph 32.2 mph 0.20 in Rain , Thunderstorm Heavy Rain
1:26 AM 66.2 °F - 62.6 °F 88% 29.75 in 1.2 mi West 13.8 mph 32.2 mph 0.36 in Rain , Thunderstorm Heavy Rain
1:34 AM 64.4 °F - 62.6 °F 94% 29.75 in 0.8 mi WSW 15.0 mph 32.2 mph 0.75 in Rain , Thunderstorm Heavy Rain
1:44 AM 64.4 °F - 62.6 °F 94% 29.76 in 1.2 mi SW 16.1 mph 27.6 mph 1.01 in Rain , Thunderstorm Heavy Thunderstorms and Rain
1:53 AM 64.0 °F - 62.1 °F 93% 29.75 in 1.0 mi WSW 12.7 mph 28.8 mph 1.25 in Rain , Thunderstorm Heavy Thunderstorms and Rain
2:16 AM 64.4 °F - 62.6 °F 94% 29.80 in 2.0 mi WNW 12.7 mph 19.6 mph 0.48 in Rain , Thunderstorm Heavy Thunderstorms and Rain
2:25 AM 57.2 °F - 55.4 °F 94% 29.82 in 5.0 mi NNW 11.5 mph 21.9 mph 0.51 in Rain , Thunderstorm Rain
2:41 AM 53.6 °F - 51.8 °F 94% 29.84 in 6.0 mi North 8.1 mph 20.7 mph 0.54 in Rain Rain
2:53 AM 53.1 °F - 51.1 °F 93% 29.83 in 5.0 mi North 5.8 mph - 0.57 in Rain Rain
3:53 AM 48.9 °F - 46.9 °F 93% 29.85 in 10.0 mi Variable 3.5 mph - 0.12 in   Overcast
4:29 AM 46.4 °F 43.5 °F 44.6 °F 93% 29.84 in 10.0 mi North 5.8 mph - 0.01 in Rain Light Rain
4:41 AM 46.4 °F 43.5 °F 44.6 °F 93% 29.85 in 5.0 mi NNE 5.8 mph - 0.05 in Rain Heavy Rain
4:53 AM 46.0 °F 41.9 °F 44.1 °F 93% 29.84 in 10.0 mi North 8.1 mph - 0.05 in Rain Light Rain
5:04 AM 44.6 °F 39.7 °F 42.8 °F 93% 29.85 in 2.5 mi NNE 9.2 mph 16.1 mph 0.17 in Rain Heavy Rain
5:10 AM 44.6 °F 39.7 °F 42.8 °F 93% 29.84 in 1.8 mi NNW 9.2 mph - 0.26 in Rain Heavy Rain
5:14 AM 44.6 °F 39.2 °F 42.8 °F 93% 29.85 in 2.0 mi North 10.4 mph 18.4 mph 0.27 in Rain Heavy Rain
5:24 AM 44.6 °F 40.7 °F 42.8 °F 93% 29.86 in 4.0 mi Variable 6.9 mph 21.9 mph 0.32 in Rain Rain
5:31 AM 44.6 °F 40.2 °F 42.8 °F 93% 29.85 in 4.0 mi NNE 8.1 mph - 0.37 in Rain , Thunderstorm Thunderstorms and Rain
5:39 AM 44.6 °F 40.7 °F 42.8 °F 93% 29.86 in 2.5 mi Variable 6.9 mph - 0.42 in Rain , Thunderstorm Thunderstorms and Rain
5:46 AM 44.6 °F 40.2 °F 42.8 °F 93% 29.86 in 5.0 mi North 8.1 mph - 0.46 in Rain , Thunderstorm Thunderstorms and Rain
5:53 AM 44.1 °F 41.5 °F 42.1 °F 93% 29.88 in 3.0 mi Variable 4.6 mph - 0.51 in Rain , Thunderstorm Heavy Rain
6:00 AM 44.6 °F 40.7 °F 42.8 °F 93% 29.90 in 2.5 mi Variable 6.9 mph - 0.08 in Rain , Thunderstorm Heavy Rain
6:10 AM 44.6 °F 39.7 °F 42.8 °F 93% 29.91 in 4.0 mi NW 9.2 mph - 0.13 in Rain , Thunderstorm Heavy Rain
6:32 AM 42.8 °F 38.6 °F 41.0 °F 93% 29.92 in 3.0 mi NNW 6.9 mph - 0.24 in Rain , Thunderstorm Heavy Rain
6:38 AM 42.8 °F 39.3 °F 41.0 °F 93% 29.91 in 3.0 mi NNW 5.8 mph 16.1 mph 0.28 in Rain , Thunderstorm Heavy Rain
6:53 AM 43.0 °F 38.8 °F 41.0 °F 93% 29.92 in 5.0 mi Variable 6.9 mph - 0.33 in Rain , Thunderstorm Rain
7:01 AM 42.8 °F 38.6 °F 39.2 °F 87% 29.91 in 4.0 mi NNE 6.9 mph - 0.03 in Rain Heavy Rain
7:37 AM 42.8 °F 36.6 °F 39.2 °F 87% 29.90 in 5.0 mi North 11.5 mph 19.6 mph 0.17 in Rain Rain
7:53 AM 42.1 °F 37.7 °F 39.9 °F 92% 29.91 in 5.0 mi Variable 6.9 mph 18.4 mph 0.22 in Rain Heavy Rain
8:06 AM 42.8 °F 37.5 °F 39.2 °F 87% 29.94 in 6.0 mi NNW 9.2 mph - 0.04 in Rain Rain
8:14 AM 42.8 °F 37.5 °F 39.2 °F 87% 29.95 in 5.0 mi NNW 9.2 mph 20.7 mph 0.07 in Rain Heavy Rain
8:41 AM 42.8 °F 37.0 °F 39.2 °F 87% 29.97 in 2.5 mi NW 10.4 mph - 0.19 in Rain Heavy Rain
8:48 AM 42.8 °F 36.2 °F 39.2 °F 87% 29.98 in 3.0 mi NW 12.7 mph 18.4 mph 0.21 in Rain Rain
8:53 AM 41.0 °F 37.1 °F 39.0 °F 93% 29.97 in 2.5 mi Variable 5.8 mph 18.4 mph 0.24 in Rain Heavy Rain
9:10 AM 42.8 °F 38.6 °F 39.2 °F 87% 29.97 in 4.0 mi NNW 6.9 mph - 0.05 in Rain Rain
9:42 AM 41.0 °F 36.4 °F 39.2 °F 93% 30.01 in 1.8 mi Variable 6.9 mph 16.1 mph 0.14 in Rain Heavy Rain
9:53 AM 41.0 °F 35.2 °F 39.0 °F 93% 30.02 in 2.5 mi WNW 9.2 mph - 0.19 in Rain Heavy Rain
9:57 AM 41.0 °F 36.4 °F 39.2 °F 93% 30.00 in 3.0 mi Variable 6.9 mph - 0.00 in Rain Rain
10:53 AM 41.0 °F 36.4 °F 39.0 °F 93% 30.03 in 10.0 mi Variable 6.9 mph - 0.05 in Rain Light Rain
11:53 AM 41.0 °F 36.4 °F 37.9 °F 89% 30.00 in 4.0 mi NNW 6.9 mph - 0.05 in Rain Light Rain
12:49 PM 42.8 °F 39.3 °F 39.2 °F 87% 30.03 in 10.0 mi NNW 5.8 mph - 0.02 in Rain Light Rain
12:53 PM 42.1 °F 38.4 °F 39.0 °F 89% 30.01 in 10.0 mi Variable 5.8 mph - 0.03 in Rain Light Rain
1:53 PM 42.1 °F 37.1 °F 39.0 °F 89% 30.06 in 10.0 mi NW 8.1 mph - 0.01 in Rain Light Rain
2:28 PM 42.8 °F 38.0 °F 39.2 °F 87% 30.09 in 10.0 mi NNW 8.1 mph - 0.00 in   Overcast
2:37 PM 42.8 °F 37.0 °F 37.4 °F 81% 30.09 in 10.0 mi NNW 10.4 mph 17.3 mph 0.00 in   Overcast
2:53 PM 41.0 °F 36.4 °F 37.9 °F 89% 30.10 in 10.0 mi Variable 6.9 mph 18.4 mph 0.00 in   Overcast
3:00 PM 42.8 °F 38.6 °F 37.4 °F 81% 30.10 in 10.0 mi Variable 6.9 mph - N/A   Overcast
3:53 PM 42.1 °F 38.4 °F 37.0 °F 82% 30.14 in 10.0 mi Variable 5.8 mph - N/A   Overcast
4:53 PM 39.9 °F 35.8 °F 35.1 °F 83% 30.16 in 10.0 mi North 5.8 mph 18.4 mph N/A   Overcast
5:21 PM 39.2 °F 35.9 °F 35.6 °F 87% 30.17 in 10.0 mi North 4.6 mph 17.3 mph N/A   Overcast
5:40 PM 39.2 °F 37.0 °F 35.6 °F 87% 30.17 in 10.0 mi Variable 3.5 mph - N/A   Overcast
5:49 PM 39.2 °F 35.0 °F 35.6 °F 87% 30.18 in 10.0 mi North 5.8 mph - N/A   Overcast
5:53 PM 39.9 °F 35.8 °F 35.1 °F 83% 30.18 in 10.0 mi NNE 5.8 mph - N/A   Overcast
6:01 PM 39.2 °F 35.0 °F 35.6 °F 87% 30.17 in 10.0 mi Variable 5.8 mph - N/A   Overcast
6:53 PM 39.9 °F 35.1 °F 34.0 °F 79% 30.19 in 10.0 mi Variable 6.9 mph - N/A   Overcast
7:53 PM 39.0 °F 32.8 °F 33.1 °F 79% 30.21 in 10.0 mi NNE 9.2 mph - N/A   Overcast
8:53 PM 37.9 °F 31.5 °F 33.1 °F 83% 30.21 in 10.0 mi NNE 9.2 mph 17.3 mph N/A   Overcast
9:26 PM 37.4 °F 32.1 °F 30.2 °F 75% 30.21 in 10.0 mi NNE 6.9 mph 16.1 mph N/A   Scattered Clouds
9:53 PM 37.0 °F 31.0 °F 30.9 °F 79% 30.24 in 10.0 mi NE 8.1 mph - N/A   Clear
10:53 PM 36.0 °F 32.1 °F 30.0 °F 79% 30.25 in 10.0 mi NNE 4.6 mph - N/A   Clear
11:53 PM 35.1 °F 27.9 °F 28.9 °F 78% 30.25 in 10.0 mi NNE 9.2 mph - N/A   Clear